Volver al catálogo

COSMOS 1375 DEB

ActivoLEO
NORAD 18477·DEBRIS·🇷🇺 Russia

Lanzado Jun 6, 1982 desde Plesetsk Cosmodrome

Loading…

Próximos Pases (próximas 24 horas)

TLE

ActualizadoSource: Space-Track

Época: Sep 14, 2026, 13:26 UTC

1 18477U 82055BF  26257.55985825  .00004615  00000-0  11719-2 0  9993
2 18477  65.8156 317.1277 0025625 275.0166  84.8011 14.51486722 91210

Sigue COSMOS 1375 DEB en tiempo real con AllMySat

Download on the App Store